Location: Aranbee
(34.0885°N, 118.2342°W)
Time: 04:13:57
(UTC+00:00)

Courier 1B - Pass Details

Date: 02 December 2020
Orbit: 962 x 1209 km, 28.3° (Epoch: 17 January)

Event Time Altitude Azimuth Distance (km) Brightness Sun altitude
Rises 01:55:24 0° 196° (SSW) 3,623 11.0 -14.7°
Reaches altitude 10° 02:01:32 10° 152° (SSE) 2,688 9.7 -15.9°
Maximum altitude 02:01:56 10° 149° (SSE) 2,686 9.7 -16.0°
Drops below altitude 10° 02:02:20 10° 145° (SE) 2,692 9.6 -16.1°
Enters shadow 02:04:42 - 125° (SE) 2,895 9.6 -16.5°
